Weather in Blagoveshchenka

Russia / Novosibirsk Oblast     53°55′36″N   76°56′31″E
temp.,
°C
wind,
m/s
gust,
m/s
humid.,
%
clouds,
%
prec.,
mm/h
press.,
hPa
HPBL,
m
28 february, sun
sun2801:00−28sse449916 0.0 103557
04:00−28sse479617 0.0 103484
07:00−27se499251 0.0 1032140
10:00−23se6989100 0.0 1029249
13:00−20se6991100 0.0 1026309
16:00−16se61093100 0.3 1023413
19:00−13ese5994100 0.4 1019337
22:00−10ese51095100 0.2 1016273
1 march, mon
mon101:00−7ese5896100 0.8 1012295
04:00−4ese5996100 1.9 1008377
07:00−4e2398100 3.1 100565
10:000sw41099100 1.0 1005477
13:000sw81399100 1.6 1005652
16:000wsw71198100 0.4 1006685
19:00−4nnw4696100 1.1 1008189
22:00−10nnw359692 0.3 1011125
2 march, tue
tue201:00−14nw349686 0.3 101467
04:00−16wnw359793 0.1 101677
07:00−19wnw339890 0.1 101831
10:00−19w239767 0.0 101938
13:00−15sw239280 0.0 1019240
16:00−13ssw3492100 0.0 1018330
19:00−14s2296100 0.1 101738
22:00−15s2297100 0.2 101622
3 march, wed
wed301:00−15ssw1297100 0.4 101620
04:00−15sw129795 0.3 101520
07:00−15w129697 0.6 101620
10:00−15w239691 0.1 1017104
13:00−13wsw359286 0.1 1018322
16:00−12sw469198 0.0 1019432
19:00−16ssw489594 0.1 1020153
22:00−17s489580 0.0 1020163
4 march, thu
thu401:00−15s5109386 0.0 1020214
04:00−16s599483 0.0 1018165
07:00−15s5109091 0.0 1018225
10:00−14sse61089100 0.0 1016254
13:00−10s71191100 0.0 1014340
16:00−7s81390100 0.0 1012455
19:00−7sse71388100 0.0 1010407
22:00−7sse61391100 0.0 1008281